Simultaneous Nadir Overpasses (SNOs) Predictions

Prediction of SNOs between METOP-A and TERRA Satellite Orbit:

Table of predicted SNOs for the next 14.0 days since TLE Epoch: 11/30/2019
Index Date (METOP-A) Time (METOP-A) Lat,Lon (METOP-A) SZA (METOP-A ) Date (TERRA) Time (TERRA) Lat,Lon (TERRA) SZA (TERRA ) Distance(km) Time Diff (sec)
1 12/01/2019 15:06:34 -81.44,-176.92 73.57 12/01/2019 15:07:06 -81.44,-176.80 73.55 2.17 32
2 12/01/2019 15:57:14 81.44, -9.20 106.48 12/01/2019 15:56:32 81.44, -9.02 106.48 3.01 42
3 12/04/2019 10:40:57 -81.44,-110.40 73.19 12/04/2019 10:41:21 -81.44,-110.29 73.16 1.78 24
4 12/04/2019 11:31:37 81.44, 57.29 106.86 12/04/2019 11:30:47 81.45, 57.47 106.86 3.13 50
5 12/07/2019 06:15:20 -81.44, -43.89 72.86 12/07/2019 06:15:36 -81.44, -43.83 72.85 1.06 16
6 12/07/2019 07:06:00 81.43, 123.76 107.18 12/07/2019 07:05:02 81.45, 123.91 107.18 2.77 58
7 12/10/2019 01:49:42 -81.44, 22.59 72.60 12/10/2019 01:49:50 -81.44, 22.58 72.60 0.40 8
8 12/10/2019 02:40:22 81.43,-169.79 107.44 12/10/2019 02:39:16 81.44,-169.70 107.42 1.94 66
9 12/12/2019 20:33:25 81.44, -78.66 107.56 12/12/2019 20:34:38 81.44, -78.66 107.60 0.39 73
10 12/12/2019 21:24:05 -81.44, 89.06 72.40 12/12/2019 21:24:05 -81.44, 88.94 72.41 1.90 0




NCC Satellite Simultaneous Nadir Overpasses (SNOs) Prediction Service
